User: anonymous   Login
Location: Unspecified
(0.0000°N, 0.0000°E)
Time: 00:15:50
(UTC+00:00)
Language:

ARGOS - Orbit

View from above orbital plane
View from above orbital plane
View from above satellite
View from above satellite

Ground track
Ground track

The orbit data is extracted from the following two-line orbital elements,

1 25634U 99008A   17326.60177927 -.00000011 +00000-0 +14924-4 0  9991
2 25634 098.5995 024.9757 0011251 109.4375 250.8018 14.19322866970462
Epoch (UTC): 22 November 2017 14:26:33
Eccentricity: 0.0011251
inclination: 98.5995°
perigee height: 819 km
apogee height: 836 km
right ascension of ascending node: 24.9757°
argument of perigee: 109.4375°
revolutions per day: 14.19322866
mean anomaly at epoch: 250.8018°
orbit number at epoch: 97046

The dashed part of the orbit path shows where the satellite is in the earth's shadow,  

DLR